Location: Ladrillo (historical)
(32.8195°N, 117.2231°W)
Time: 03:46:04
(UTC+00:00)

Cosmos 1302 Rocket - Pass Details

Date: 29 October 2020
Orbit: 756 x 777 km, 74.0° (Epoch: 26 November)

Event Time Altitude Azimuth Distance (km) Brightness Sun altitude
Exits shadow 12:30:06 38° 247° (WSW) 1,156 4.5 -20.4°
Drops below altitude 10° 12:34:31 10° 191° (SSW) 2,304 6.4 -19.5°
Sets 12:37:01 0° 184° (S) 3,223 7.2 -18.9°
